| time (UTC) | temp F | wind direction | speed MPH | gust MPH | rain 1hr in | rain 24hr in | rain mn in | humidity % | barometer mb |
| 20260831151537 | 65 | 149 | 0.0 | 0.0 | 0.00 | 0.00 | 0.48 | 95 | 999.5 |
| 20260831151022 | 65 | 153 | 0.0 | 0.0 | 0.00 | 0.00 | 0.48 | 95 | 999.6 |
| 20260831150529 | 65 | 168 | 0.0 | 0.0 | 0.00 | 0.00 | 0.48 | 95 | 999.6 |
| 20260831150045 | 65 | 108 | 0.0 | 0.0 | 0.00 | 0.00 | 0.48 | 96 | 999.6 |
| 20260831145531 | 65 | 154 | 0.0 | 0.0 | 0.00 | 0.00 | 0.48 | 95 | 999.6 |
| 20260831145042 | 65 | 137 | 0.0 | 0.0 | 0.00 | 0.00 | 0.48 | 95 | 999.6 |
| 20260831144527 | 65 | 137 | 0.0 | 0.0 | 0.00 | 0.00 | 0.48 | 95 | 999.6 |
| 20260831144032 | 65 | 139 | 0.0 | 0.0 | 0.00 | 0.00 | 0.48 | 95 | 999.6 |
| 20260831143546 | 65 | 139 | 0.0 | 0.0 | 0.00 | 0.00 | 0.48 | 96 | 999.6 |
| 20260831143030 | 65 | 139 | 0.0 | 0.0 | 0.00 | 0.00 | 0.48 | 96 | 999.6 |
| 20260831142538 | 65 | 74 | 0.0 | 0.0 | 0.00 | 0.00 | 0.48 | 96 | 999.5 |
| 20260831142051 | 65 | 74 | 0.0 | 0.0 | 0.00 | 0.00 | 0.48 | 96 | 999.5 |
| 20260831141535 | 65 | 74 | 0.0 | 0.0 | 0.00 | 0.00 | 0.48 | 96 | 999.5 |
| 20260831141041 | 65 | 51 | 0.0 | 0.0 | 0.00 | 0.00 | 0.48 | 96 | 999.7 |
| 20260831140531 | 65 | 317 | 0.0 | 0.0 | 0.00 | 0.00 | 0.48 | 96 | 999.7 |
| 20260831140025 | 65 | 317 | 0.0 | 0.0 | 0.00 | 0.00 | 0.48 | 96 | 999.7 |
| 20260831135526 | 65 | 317 | 0.0 | 0.0 | 0.00 | 0.00 | 0.47 | 96 | 999.7 |
| 20260831135033 | 64 | 317 | 0.0 | 0.0 | 0.00 | 0.00 | 0.47 | 96 | 999.7 |
| 20260831134543 | 64 | 317 | 0.0 | 0.0 | 0.00 | 0.00 | 0.46 | 95 | 999.7 |
| 20260831134024 | 64 | 317 | 0.0 | 0.0 | 0.00 | 0.00 | 0.46 | 96 | 999.6 |
| 20260831133534 | 65 | 317 | 0.0 | 0.0 | 0.00 | 0.00 | 0.46 | 96 | 999.6 |
| 20260831133034 | 65 | 317 | 0.0 | 0.0 | 0.00 | 0.00 | 0.46 | 96 | 999.6 |
| 20260831132537 | 64 | 317 | 0.0 | 0.0 | 0.00 | 0.00 | 0.46 | 96 | 999.6 |
| 20260831132041 | 64 | 317 | 0.0 | 0.0 | 0.00 | 0.00 | 0.46 | 95 | 999.6 |
| 20260831131526 | 64 | 317 | 0.0 | 0.0 | 0.00 | 0.00 | 0.46 | 95 | 999.6 |
| 20260831131020 | 64 | 317 | 0.0 | 0.0 | 0.00 | 0.00 | 0.46 | 94 | 999.7 |
| 20260831130527 | 64 | 317 | 0.0 | 0.0 | 0.00 | 0.00 | 0.46 | 93 | 999.7 |
| 20260831130045 | 64 | 317 | 0.0 | 0.0 | 0.00 | 0.00 | 0.45 | 92 | 999.7 |
| 20260831125529 | 65 | 317 | 0.0 | 0.0 | 0.00 | 0.00 | 0.44 | 91 | 999.6 |
| 20260831125029 | 65 | 317 | 0.0 | 0.0 | 0.00 | 0.00 | 0.44 | 90 | 999.6 |
| 20260831124528 | 65 | 317 | 0.0 | 0.0 | 0.00 | 0.00 | 0.39 | 89 | 999.6 |
| 20260831124054 | 66 | 317 | 0.0 | 0.0 | 0.00 | 0.00 | 0.26 | 88 | 999.3 |
| 20260831123550 | 66 | 202 | 0.0 | 0.0 | 0.00 | 0.00 | 0.12 | 87 | 999.3 |
| 20260831123029 | 67 | 264 | 0.0 | 0.0 | 0.00 | 0.00 | 0.10 | 88 | 999.3 |
| 20260831122544 | 67 | 243 | 0.0 | 0.0 | 0.00 | 0.00 | 0.09 | 87 | 999.2 |
| 20260831122027 | 68 | 209 | 0.0 | 0.0 | 0.00 | 0.00 | 0.09 | 88 | 999.3 |
| 20260831121530 | 68 | 136 | 0.0 | 0.0 | 0.00 | 0.00 | 0.09 | 88 | 999.3 |
| 20260831121047 | 68 | 164 | 0.0 | 0.0 | 0.00 | 0.00 | 0.09 | 89 | 999.3 |
| 20260831120526 | 67 | 259 | 0.0 | 0.0 | 0.00 | 0.00 | 0.09 | 91 | 999.2 |
| 20260831120032 | 67 | 259 | 0.0 | 0.0 | 0.00 | 0.00 | 0.09 | 92 | 999.2 |
| 20260831115544 | 67 | 259 | 0.0 | 0.0 | 0.00 | 0.00 | 0.09 | 92 | 999.2 |
| 20260831115029 | 67 | 259 | 0.0 | 0.0 | 0.00 | 0.00 | 0.09 | 93 | 999.2 |
| 20260831114533 | 67 | 33 | 0.0 | 0.0 | 0.00 | 0.00 | 0.09 | 94 | 999.2 |
| 20260831114050 | 67 | 123 | 0.0 | 0.0 | 0.00 | 0.00 | 0.09 | 94 | 999.3 |
| 20260831113533 | 66 | 85 | 0.0 | 0.0 | 0.00 | 0.00 | 0.09 | 95 | 999.3 |
| 20260831113041 | 66 | 223 | 0.0 | 0.0 | 0.00 | 0.00 | 0.09 | 96 | 999.3 |
| 20260831112522 | 66 | 163 | 0.0 | 0.0 | 0.00 | 0.00 | 0.09 | 98 | 999.4 |
| 20260831112051 | 65 | 164 | 0.0 | 0.0 | 0.00 | 0.00 | 0.09 | 98 | 999.4 |
| 20260831111535 | 65 | 164 | 0.0 | 0.0 | 0.00 | 0.00 | 0.09 | 98 | 999.4 |
| 20260831111040 | 65 | 164 | 0.0 | 0.0 | 0.00 | 0.00 | 0.09 | 99 | 999.4 |
| 20260831110535 | 65 | 143 | 0.0 | 0.0 | 0.00 | 0.00 | 0.09 | 99 | 999.4 |
| 20260831110039 | 65 | 132 | 0.0 | 0.0 | 0.00 | 0.00 | 0.09 | 100 | 999.4 |
| 20260831105523 | 65 | 147 | 0.0 | 0.0 | 0.00 | 0.00 | 0.09 | 100 | 999.3 |
| 20260831105030 | 65 | 143 | 0.0 | 0.0 | 0.00 | 0.00 | 0.09 | 100 | 999.3 |
| 20260831104525 | 65 | 119 | 0.0 | 0.0 | 0.00 | 0.00 | 0.09 | 100 | 999.3 |
| 20260831104029 | 65 | 153 | 0.0 | 0.0 | 0.00 | 0.00 | 0.09 | 100 | 999.4 |
| 20260831103549 | 65 | 151 | 0.0 | 0.0 | 0.00 | 0.00 | 0.09 | 100 | 999.4 |
| 20260831103030 | 65 | 297 | 0.0 | 0.0 | 0.00 | 0.00 | 0.09 | 100 | 999.4 |
| 20260831102608 | 65 | 195 | 0.0 | 0.0 | 0.00 | 0.00 | 0.09 | 100 | 999.5 |
| 20260831102036 | 65 | 276 | 0.0 | 0.0 | 0.00 | 0.00 | 0.09 | 100 | 999.5 |
| 20260831101526 | 65 | 166 | 0.0 | 0.0 | 0.00 | 0.00 | 0.09 | 100 | 999.5 |
| 20260831101027 | 65 | 115 | 0.0 | 0.0 | 0.00 | 0.00 | 0.09 | 100 | 999.5 |
| 20260831100535 | 65 | 132 | 0.0 | 0.0 | 0.00 | 0.00 | 0.09 | 100 | 999.5 |
| 20260831095521 | 64 | 199 | 0.0 | 0.0 | 0.00 | 0.00 | 0.09 | 100 | 999.4 |
| 20260831095032 | 64 | 158 | 0.0 | 0.0 | 0.00 | 0.00 | 0.09 | 100 | 999.4 |
| 20260831094536 | 63 | 137 | 0.0 | 0.0 | 0.00 | 0.00 | 0.09 | 100 | 999.4 |
| 20260831094038 | 63 | 133 | 0.0 | 0.0 | 0.00 | 0.00 | 0.09 | 100 | 999.4 |
| 20260831093532 | 63 | 125 | 0.0 | 0.0 | 0.00 | 0.00 | 0.09 | 100 | 999.4 |
| 20260831093100 | 63 | 143 | 0.0 | 0.0 | 0.00 | 0.00 | 0.09 | 100 | 999.4 |
| 20260831092549 | 63 | 122 | 0.0 | 0.0 | 0.00 | 0.00 | 0.09 | 100 | 999.4 |
| 20260831092033 | 63 | 225 | 0.0 | 0.0 | 0.00 | 0.00 | 0.09 | 100 | 999.4 |
| 20260831091540 | 63 | 140 | 0.0 | 0.0 | 0.00 | 0.00 | 0.09 | 100 | 999.4 |
| 20260831091045 | 63 | 127 | 0.0 | 0.0 | 0.00 | 0.00 | 0.08 | 100 | 999.4 |
| 20260831090539 | 62 | 245 | 0.0 | 0.0 | 0.00 | 0.00 | 0.07 | 100 | 999.4 |
| 20260831090024 | 62 | 139 | 0.0 | 0.0 | 0.00 | 0.00 | 0.06 | 100 | 999.4 |
| 20260831085527 | 62 | 113 | 0.0 | 0.0 | 0.00 | 0.00 | 0.06 | 100 | 999.3 |
| 20260831085027 | 62 | 142 | 1.0 | 0.0 | 0.00 | 0.00 | 0.06 | 100 | 999.3 |
| 20260831084542 | 62 | 146 | 1.0 | 0.0 | 0.00 | 0.00 | 0.06 | 100 | 999.3 |
| 20260831084026 | 62 | 170 | 0.0 | 0.0 | 0.00 | 0.00 | 0.05 | 100 | 999.4 |
| 20260831083531 | 62 | 120 | 0.0 | 0.0 | 0.00 | 0.00 | 0.05 | 100 | 999.4 |
| 20260831083047 | 62 | 154 | 1.0 | 0.0 | 0.00 | 0.00 | 0.05 | 100 | 999.4 |
| 20260831082526 | 62 | 136 | 1.0 | 0.0 | 0.00 | 0.00 | 0.05 | 100 | 999.5 |
| 20260831082033 | 62 | 163 | 1.0 | 0.0 | 0.00 | 0.00 | 0.05 | 100 | 999.5 |
| 20260831081548 | 62 | 156 | 1.0 | 0.0 | 0.00 | 0.00 | 0.05 | 100 | 999.5 |
| 20260831081049 | 62 | 171 | 1.0 | 0.0 | 0.00 | 0.00 | 0.05 | 100 | 999.5 |
| 20260831080534 | 62 | 142 | 0.0 | 0.0 | 0.00 | 0.00 | 0.05 | 100 | 999.5 |
| 20260831080027 | 62 | 180 | 0.0 | 0.0 | 0.00 | 0.00 | 0.05 | 100 | 999.5 |
| 20260831075532 | 62 | 174 | 0.0 | 0.0 | 0.00 | 0.00 | 0.05 | 100 | 999.5 |
| 20260831075037 | 61 | 149 | 0.0 | 0.0 | 0.00 | 0.00 | 0.05 | 100 | 999.5 |
| 20260831074552 | 61 | 120 | 0.0 | 0.0 | 0.00 | 0.00 | 0.05 | 100 | 999.5 |
| 20260831074041 | 61 | 95 | 0.0 | 0.0 | 0.00 | 0.00 | 0.05 | 100 | 999.6 |
| 20260831073600 | 61 | 140 | 0.0 | 0.0 | 0.00 | 0.00 | 0.05 | 100 | 999.6 |
| 20260831073056 | 61 | 109 | 0.0 | 0.0 | 0.00 | 0.00 | 0.05 | 100 | 999.6 |
| 20260831072538 | 61 | 219 | 0.0 | 0.0 | 0.00 | 0.00 | 0.05 | 100 | 999.7 |
| 20260831072023 | 61 | 142 | 0.0 | 0.0 | 0.00 | 0.00 | 0.05 | 100 | 999.7 |
| 20260831071557 | 60 | 112 | 0.0 | 0.0 | 0.00 | 0.00 | 0.05 | 100 | 999.7 |
| 20260831071037 | 60 | 123 | 0.0 | 0.0 | 0.00 | 0.00 | 0.05 | 100 | 999.7 |
| 20260831070523 | 60 | 105 | 0.0 | 0.0 | 0.00 | 0.00 | 0.05 | 100 | 999.7 |
| 20260831070034 | 60 | 137 | 0.0 | 0.0 | 0.00 | 0.00 | 0.05 | 100 | 999.7 |
| 20260831065537 | 60 | 150 | 0.0 | 0.0 | 0.00 | 0.00 | 0.05 | 100 | 999.7 |
| 20260831065051 | 60 | 110 | 0.0 | 0.0 | 0.00 | 0.00 | 0.05 | 100 | 999.7 |
| 20260831064532 | 60 | 153 | 0.0 | 0.0 | 0.00 | 0.00 | 0.05 | 100 | 999.7 |
| 20260831064037 | 60 | 139 | 0.0 | 0.0 | 0.00 | 0.00 | 0.05 | 100 | 999.7 |
| 20260831063522 | 60 | 132 | 0.0 | 0.0 | 0.00 | 0.00 | 0.05 | 100 | 999.7 |
| 20260831063034 | 60 | 160 | 0.0 | 0.0 | 0.00 | 0.00 | 0.05 | 100 | 999.7 |
| 20260831062553 | 60 | 134 | 0.0 | 0.0 | 0.00 | 0.00 | 0.05 | 100 | 999.7 |
| 20260831062045 | 60 | 132 | 0.0 | 0.0 | 0.00 | 0.00 | 0.05 | 100 | 999.7 |
| 20260831061532 | 60 | 149 | 0.0 | 0.0 | 0.00 | 0.00 | 0.05 | 100 | 999.7 |
| 20260831061045 | 59 | 134 | 0.0 | 0.0 | 0.00 | 0.00 | 0.04 | 100 | 999.7 |
| 20260831060532 | 59 | 133 | 0.0 | 0.0 | 0.00 | 0.00 | 0.04 | 100 | 999.7 |
| 20260831060108 | 59 | 132 | 0.0 | 0.0 | 0.00 | 0.00 | 0.04 | 100 | 999.7 |
| 20260831055548 | 59 | 140 | 0.0 | 0.0 | 0.00 | 0.00 | 0.04 | 100 | 999.8 |
| 20260831055041 | 59 | 190 | 0.0 | 0.0 | 0.00 | 0.00 | 0.04 | 100 | 999.8 |
| 20260831054545 | 59 | 132 | 0.0 | 0.0 | 0.00 | 0.00 | 0.04 | 100 | 999.8 |
| 20260831054027 | 59 | 123 | 0.0 | 0.0 | 0.00 | 0.00 | 0.04 | 100 | 999.8 |
| 20260831053542 | 59 | 157 | 0.0 | 0.0 | 0.00 | 0.00 | 0.03 | 100 | 999.8 |
| 20260831053021 | 59 | 156 | 0.0 | 0.0 | 0.00 | 0.00 | 0.03 | 100 | 999.8 |
| 20260831052524 | 59 | 127 | 0.0 | 0.0 | 0.00 | 0.00 | 0.02 | 100 | 1000.0 |
| 20260831052037 | 59 | 110 | 0.0 | 0.0 | 0.00 | 0.00 | 0.02 | 100 | 1000.0 |
| 20260831051556 | 59 | 150 | 0.0 | 0.0 | 0.00 | 0.00 | 0.01 | 100 | 1000.0 |
| 20260831051050 | 59 | 150 | 0.0 | 0.0 | 0.00 | 0.00 | 0.01 | 100 | 1000.2 |
| 20260831050532 | 59 | 99 | 0.0 | 0.0 | 0.00 | 0.00 | 0.01 | 100 | 1000.2 |
| 20260831050112 | 59 | 126 | 0.0 | 0.0 | 0.00 | 0.00 | 0.01 | 100 | 1000.2 |
| 20260831045529 | 59 | 132 | 0.0 | 0.0 | 0.00 | 0.00 | 0.00 | 100 | 1000.3 |
| 20260831045030 | 59 | 132 | 0.0 | 0.0 | 0.00 | 0.00 | 0.00 | 100 | 1000.3 |
| 20260831044543 | 58 | 136 | 0.0 | 0.0 | 0.00 | 0.00 | 0.00 | 100 | 1000.3 |
| 20260831044027 | 58 | 136 | 0.0 | 0.0 | 0.00 | 0.00 | 0.00 | 100 | 1000.3 |
| 20260831043532 | 58 | 133 | 0.0 | 0.0 | 0.00 | 0.00 | 0.00 | 100 | 1000.3 |
| 20260831043046 | 58 | 147 | 0.0 | 0.0 | 0.00 | 0.00 | 0.00 | 100 | 1000.3 |
| 20260831042524 | 58 | 130 | 0.0 | 0.0 | 0.00 | 0.00 | 0.00 | 100 | 1000.3 |
| 20260831042030 | 58 | 137 | 0.0 | 0.0 | 0.00 | 0.00 | 0.00 | 100 | 1000.3 |
| 20260831041546 | 58 | 143 | 0.0 | 0.0 | 0.00 | 0.00 | 0.00 | 100 | 1000.3 |
| 20260831041028 | 58 | 129 | 0.0 | 0.0 | 0.00 | 0.00 | 0.00 | 100 | 1000.3 |
| 20260831040529 | 57 | 130 | 0.0 | 0.0 | 0.00 | 0.00 | 0.00 | 100 | 1000.3 |
| 20260831040038 | 57 | 116 | 0.0 | 0.0 | 0.00 | 0.00 | 0.00 | 100 | 1000.3 |
| 20260831035550 | 57 | 116 | 0.0 | 0.0 | 0.00 | 0.00 | 0.00 | 100 | 1000.5 |
| 20260831035057 | 57 | 106 | 0.0 | 0.0 | 0.00 | 0.00 | 0.00 | 100 | 1000.5 |
| 20260831034550 | 57 | 122 | 0.0 | 0.0 | 0.00 | 0.00 | 0.00 | 100 | 1000.5 |
| 20260831034031 | 57 | 129 | 0.0 | 0.0 | 0.00 | 0.00 | 0.00 | 100 | 1000.6 |
| 20260831033536 | 57 | 130 | 0.0 | 0.0 | 0.00 | 0.00 | 0.00 | 100 | 1000.6 |
| 20260831033039 | 57 | 130 | 0.0 | 0.0 | 0.00 | 0.00 | 0.00 | 100 | 1000.6 |
| 20260831032530 | 57 | 130 | 0.0 | 0.0 | 0.00 | 0.00 | 0.00 | 100 | 1000.7 |
| 20260831032029 | 57 | 130 | 0.0 | 0.0 | 0.00 | 0.00 | 0.00 | 100 | 1000.7 |
| 20260831031523 | 57 | 130 | 0.0 | 0.0 | 0.00 | 0.00 | 0.00 | 100 | 1000.7 |
| 20260831031040 | 57 | 132 | 0.0 | 0.0 | 0.00 | 0.00 | 0.00 | 100 | 1000.7 |
| 20260831030527 | 57 | 132 | 0.0 | 0.0 | 0.00 | 0.00 | 0.00 | 100 | 1000.7 |
| 20260831030042 | 57 | 150 | 0.0 | 0.0 | 0.00 | 0.00 | 0.00 | 100 | 1000.7 |
| 20260831025526 | 57 | 150 | 0.0 | 0.0 | 0.00 | 0.00 | 0.00 | 100 | 1000.8 |
| 20260831025033 | 57 | 120 | 0.0 | 0.0 | 0.00 | 0.00 | 0.00 | 100 | 1000.8 |
| 20260831024541 | 57 | 168 | 0.0 | 0.0 | 0.00 | 0.00 | 0.00 | 100 | 1000.8 |
| 20260831024024 | 57 | 147 | 0.0 | 0.0 | 0.00 | 0.00 | 0.00 | 100 | 1000.8 |
| 20260831023536 | 57 | 140 | 0.0 | 0.0 | 0.00 | 0.00 | 0.00 | 100 | 1000.8 |
| 20260831023041 | 56 | 201 | 0.0 | 0.0 | 0.00 | 0.00 | 0.00 | 100 | 1000.8 |
| 20260831022543 | 56 | 205 | 0.0 | 0.0 | 0.00 | 0.00 | 0.00 | 100 | 1000.8 |
| 20260831022034 | 56 | 163 | 0.0 | 0.0 | 0.00 | 0.00 | 0.00 | 100 | 1000.8 |
| 20260831021558 | 56 | 143 | 0.0 | 0.0 | 0.00 | 0.00 | 0.00 | 100 | 1000.8 |
| 20260831021022 | 56 | 139 | 0.0 | 0.0 | 0.00 | 0.00 | 0.00 | 100 | 1000.8 |
| 20260831020536 | 56 | 153 | 0.0 | 0.0 | 0.00 | 0.00 | 0.00 | 100 | 1000.8 |
| 20260831020043 | 56 | 168 | 0.0 | 0.0 | 0.00 | 0.00 | 0.00 | 100 | 1000.8 |
| 20260831015544 | 56 | 147 | 0.0 | 0.0 | 0.00 | 0.00 | 0.00 | 100 | 1000.8 |
| 20260831015026 | 56 | 149 | 0.0 | 0.0 | 0.00 | 0.00 | 0.00 | 100 | 1000.8 |
| 20260831014555 | 56 | 144 | 0.0 | 0.0 | 0.00 | 0.00 | 0.00 | 100 | 1000.8 |
| 20260831014046 | 56 | 151 | 0.0 | 0.0 | 0.00 | 0.00 | 0.00 | 100 | 1001.0 |
| 20260831013525 | 56 | 143 | 0.0 | 0.0 | 0.00 | 0.00 | 0.00 | 100 | 1001.0 |
| 20260831013033 | 56 | 154 | 0.0 | 0.0 | 0.00 | 0.00 | 0.00 | 100 | 1001.0 |
| 20260831012537 | 56 | 137 | 0.0 | 0.0 | 0.00 | 0.00 | 0.00 | 100 | 1001.0 |
| 20260831012033 | 56 | 160 | 0.0 | 0.0 | 0.00 | 0.00 | 0.00 | 100 | 1001.0 |
| 20260831011550 | 56 | 163 | 0.0 | 0.0 | 0.00 | 0.00 | 0.00 | 100 | 1001.0 |
| 20260831011032 | 56 | 126 | 0.0 | 0.0 | 0.00 | 0.00 | 0.00 | 100 | 1001.1 |
| 20260831010536 | 56 | 126 | 0.0 | 0.0 | 0.00 | 0.00 | 0.00 | 100 | 1001.1 |
| 20260831010041 | 56 | 105 | 0.0 | 0.0 | 0.00 | 0.00 | 0.00 | 100 | 1001.1 |
| 20260831005536 | 56 | 188 | 0.0 | 0.0 | 0.00 | 0.00 | 0.00 | 100 | 1001.2 |
| 20260831005042 | 56 | 147 | 0.0 | 0.0 | 0.00 | 0.00 | 0.00 | 100 | 1001.2 |
| 20260831004524 | 56 | 157 | 0.0 | 0.0 | 0.00 | 0.00 | 0.00 | 100 | 1001.2 |
| 20260831004028 | 55 | 127 | 0.0 | 0.0 | 0.00 | 0.00 | 0.00 | 100 | 1001.3 |
| 20260831003543 | 55 | 144 | 0.0 | 0.0 | 0.00 | 0.00 | 0.00 | 100 | 1001.3 |
| 20260831003025 | 55 | 153 | 0.0 | 0.0 | 0.00 | 0.00 | 0.00 | 100 | 1001.3 |
| 20260831002542 | 55 | 168 | 0.0 | 0.0 | 0.00 | 0.00 | 0.00 | 100 | 1001.3 |
| 20260831002024 | 55 | 147 | 0.0 | 0.0 | 0.00 | 0.00 | 0.00 | 100 | 1001.3 |
| 20260831001529 | 55 | 144 | 0.0 | 0.0 | 0.00 | 0.00 | 0.00 | 100 | 1001.3 |
| 20260831001038 | 55 | 153 | 0.0 | 0.0 | 0.00 | 0.00 | 0.00 | 100 | 1001.3 |
| 20260831000547 | 55 | 118 | 0.0 | 0.0 | 0.00 | 0.00 | 0.00 | 100 | 1001.3 |
| 20260831000039 | 55 | 151 | 0.0 | 0.0 | 0.00 | 0.00 | 0.00 | 100 | 1001.3 |
| 20260830235525 | 55 | 163 | 0.0 | 0.0 | 0.00 | 0.00 | 0.00 | 100 | 1001.3 |
| 20260830235029 | 56 | 223 | 0.0 | 0.0 | 0.00 | 0.00 | 0.00 | 100 | 1001.3 |
| 20260830234545 | 56 | 139 | 0.0 | 0.0 | 0.00 | 0.00 | 0.00 | 100 | 1001.3 |
| 20260830234028 | 56 | 180 | 0.0 | 0.0 | 0.00 | 0.00 | 0.00 | 100 | 1001.3 |
| 20260830233534 | 56 | 218 | 0.0 | 0.0 | 0.00 | 0.00 | 0.00 | 100 | 1001.3 |
| 20260830233040 | 56 | 158 | 0.0 | 0.0 | 0.00 | 0.00 | 0.00 | 100 | 1001.3 |
| 20260830232527 | 56 | 164 | 0.0 | 0.0 | 0.00 | 0.00 | 0.00 | 100 | 1001.3 |
| 20260830232030 | 56 | 166 | 0.0 | 0.0 | 0.00 | 0.00 | 0.00 | 100 | 1001.3 |
| 20260830231524 | 56 | 153 | 0.0 | 0.0 | 0.00 | 0.00 | 0.00 | 100 | 1001.3 |
| 20260830231040 | 56 | 208 | 0.0 | 0.0 | 0.00 | 0.00 | 0.00 | 100 | 1001.3 |
| 20260830230544 | 56 | 170 | 0.0 | 0.0 | 0.00 | 0.00 | 0.00 | 100 | 1001.3 |
| 20260830230055 | 56 | 223 | 0.0 | 0.0 | 0.00 | 0.00 | 0.00 | 100 | 1001.3 |
| 20260830225547 | 56 | 150 | 0.0 | 0.0 | 0.00 | 0.00 | 0.00 | 100 | 1001.3 |
| 20260830225031 | 56 | 175 | 0.0 | 0.0 | 0.00 | 0.00 | 0.00 | 100 | 1001.3 |
| 20260830224535 | 56 | 140 | 0.0 | 0.0 | 0.00 | 0.00 | 0.00 | 100 | 1001.3 |
| 20260830224025 | 56 | 130 | 0.0 | 0.0 | 0.00 | 0.00 | 0.00 | 100 | 1001.3 |
| 20260830223559 | 56 | 126 | 0.0 | 0.0 | 0.00 | 0.00 | 0.00 | 100 | 1001.3 |
| 20260830223022 | 56 | 147 | 0.0 | 0.0 | 0.00 | 0.00 | 0.00 | 100 | 1001.3 |
| 20260830222527 | 56 | 139 | 0.0 | 0.0 | 0.00 | 0.00 | 0.00 | 100 | 1001.3 |
| 20260830222100 | 56 | 109 | 0.0 | 0.0 | 0.00 | 0.00 | 0.00 | 100 | 1001.3 |
| 20260830221535 | 56 | 157 | 0.0 | 0.0 | 0.00 | 0.00 | 0.00 | 100 | 1001.3 |
| 20260830221047 | 56 | 116 | 0.0 | 0.0 | 0.00 | 0.00 | 0.00 | 100 | 1001.3 |
| 20260830220532 | 57 | 99 | 0.0 | 0.0 | 0.00 | 0.00 | 0.00 | 100 | 1001.4 |
| 20260830220035 | 57 | 89 | 0.0 | 0.0 | 0.00 | 0.00 | 0.00 | 100 | 1001.4 |
| 20260830215527 | 57 | 86 | 0.0 | 0.0 | 0.00 | 0.00 | 0.00 | 100 | 1001.3 |
| 20260830215030 | 57 | 140 | 0.0 | 0.0 | 0.00 | 0.00 | 0.00 | 100 | 1001.3 |
| 20260830214528 | 57 | 142 | 0.0 | 0.0 | 0.00 | 0.00 | 0.00 | 100 | 1001.3 |
| 20260830214033 | 57 | 113 | 0.0 | 0.0 | 0.00 | 0.00 | 0.00 | 100 | 1001.3 |
| 20260830213546 | 57 | 129 | 0.0 | 0.0 | 0.00 | 0.00 | 0.00 | 100 | 1001.3 |
| 20260830213024 | 57 | 163 | 0.0 | 0.0 | 0.00 | 0.00 | 0.00 | 100 | 1001.3 |
| 20260830212526 | 57 | 127 | 0.0 | 0.0 | 0.00 | 0.00 | 0.00 | 100 | 1001.4 |
| 20260830212107 | 57 | 127 | 0.0 | 0.0 | 0.00 | 0.00 | 0.00 | 100 | 1001.4 |
| 20260830211527 | 57 | 127 | 0.0 | 0.0 | 0.00 | 0.00 | 0.00 | 100 | 1001.4 |
| 20260830211030 | 57 | 120 | 0.0 | 0.0 | 0.00 | 0.00 | 0.00 | 100 | 1001.4 |
| 20260830210544 | 57 | 120 | 0.0 | 0.0 | 0.00 | 0.00 | 0.00 | 100 | 1001.4 |
| 20260830210030 | 57 | 166 | 0.0 | 0.0 | 0.00 | 0.00 | 0.17 | 100 | 1001.4 |
| 20260830205527 | 57 | 166 | 0.0 | 0.0 | 0.00 | 0.00 | 0.17 | 100 | 1001.4 |
| 20260830205041 | 57 | 95 | 0.0 | 0.0 | 0.00 | 0.00 | 0.17 | 100 | 1001.4 |
| 20260830204547 | 57 | 180 | 0.0 | 0.0 | 0.00 | 0.00 | 0.17 | 100 | 1001.4 |
| 20260830204105 | 57 | 180 | 0.0 | 0.0 | 0.00 | 0.00 | 0.17 | 100 | 1001.4 |
| 20260830203529 | 57 | 174 | 0.0 | 0.0 | 0.00 | 0.00 | 0.17 | 100 | 1001.4 |
| 20260830203034 | 56 | 163 | 0.0 | 0.0 | 0.00 | 0.00 | 0.17 | 99 | 1001.4 |
| 20260830202543 | 56 | 134 | 0.0 | 0.0 | 0.00 | 0.00 | 0.17 | 99 | 1001.3 |
| 20260830202026 | 56 | 136 | 0.0 | 0.0 | 0.00 | 0.00 | 0.17 | 98 | 1001.3 |
| 20260830201539 | 56 | 156 | 0.0 | 0.0 | 0.00 | 0.00 | 0.17 | 98 | 1001.3 |
| 20260830201023 | 56 | 156 | 0.0 | 0.0 | 0.00 | 0.00 | 0.17 | 98 | 1001.3 |
| 20260830200530 | 56 | 156 | 0.0 | 0.0 | 0.00 | 0.00 | 0.17 | 98 | 1001.3 |
| 20260830200048 | 56 | 156 | 0.0 | 0.0 | 0.00 | 0.00 | 0.17 | 98 | 1001.3 |
| 20260830195528 | 56 | 156 | 0.0 | 0.0 | 0.00 | 0.00 | 0.17 | 97 | 1001.3 |
| 20260830195059 | 56 | 150 | 0.0 | 0.0 | 0.00 | 0.00 | 0.17 | 97 | 1001.3 |
| 20260830194541 | 56 | 191 | 0.0 | 0.0 | 0.00 | 0.00 | 0.17 | 97 | 1001.3 |
| 20260830194024 | 56 | 191 | 0.0 | 0.0 | 0.00 | 0.00 | 0.17 | 96 | 1001.3 |
| 20260830193601 | 56 | 191 | 0.0 | 0.0 | 0.00 | 0.00 | 0.17 | 96 | 1001.3 |
| 20260830193049 | 56 | 191 | 0.0 | 0.0 | 0.00 | 0.00 | 0.17 | 96 | 1001.3 |
| 20260830192526 | 56 | 191 | 0.0 | 0.0 | 0.00 | 0.00 | 0.17 | 96 | 1001.3 |
| 20260830192038 | 56 | 191 | 0.0 | 0.0 | 0.00 | 0.00 | 0.17 | 96 | 1001.3 |
| 20260830191549 | 56 | 191 | 0.0 | 0.0 | 0.00 | 0.00 | 0.17 | 95 | 1001.3 |
| 20260830191039 | 56 | 191 | 0.0 | 0.0 | 0.00 | 0.00 | 0.17 | 95 | 1001.3 |
| 20260830190623 | 56 | 191 | 0.0 | 0.0 | 0.00 | 0.00 | 0.17 | 95 | 1001.3 |
| 20260830181545 | 58 | 230 | 0.0 | 0.0 | 0.00 | 0.00 | 0.17 | 92 | 1001.3 |
| 20260830170200 | 61 | 119 | 0.0 | 0.0 | 0.00 | 0.00 | 0.17 | 87 | 1000.9 |
| 20260830165554 | 62 | 118 | 0.0 | 0.0 | 0.00 | 0.00 | 0.17 | 86 | 1000.8 |
| 20260830164543 | 62 | 274 | 0.0 | 0.0 | 0.00 | 0.00 | 0.17 | 85 | 1000.8 |
| 20260830164121 | 62 | 274 | 0.0 | 0.0 | 0.00 | 0.00 | 0.17 | 84 | 1000.8 |
| 20260830163536 | 62 | 238 | 0.0 | 0.0 | 0.00 | 0.00 | 0.17 | 84 | 1000.8 |
| 20260830163050 | 63 | 226 | 0.0 | 0.0 | 0.00 | 0.00 | 0.17 | 83 | 1000.8 |
| 20260830162529 | 63 | 184 | 0.0 | 0.0 | 0.00 | 0.00 | 0.17 | 83 | 1000.8 |
| 20260830162042 | 63 | 230 | 0.0 | 0.0 | 0.00 | 0.00 | 0.17 | 83 | 1000.8 |
| 20260830161544 | 63 | 219 | 0.0 | 0.0 | 0.00 | 0.00 | 0.17 | 82 | 1000.8 |
| 20260830161053 | 64 | 208 | 0.0 | 0.0 | 0.00 | 0.00 | 0.17 | 83 | 1000.8 |
| 20260830160530 | 64 | 254 | 0.0 | 0.0 | 0.00 | 0.00 | 0.17 | 83 | 1000.8 |
| 20260830160059 | 64 | 269 | 0.0 | 0.0 | 0.00 | 0.00 | 0.17 | 83 | 1000.8 |
| 20260830155523 | 64 | 191 | 1.0 | 0.0 | 0.00 | 0.00 | 0.17 | 83 | 1000.8 |
| 20260830155028 | 64 | 250 | 0.0 | 0.0 | 0.00 | 0.00 | 0.17 | 83 | 1000.8 |
| 20260830154544 | 64 | 239 | 0.0 | 0.0 | 0.00 | 0.00 | 0.17 | 82 | 1000.8 |
| 20260830154035 | 64 | 214 | 1.0 | 0.0 | 0.00 | 0.00 | 0.17 | 82 | 1000.8 |
| 20260830153524 | 64 | 209 | 1.0 | 0.0 | 0.00 | 0.00 | 0.17 | 81 | 1000.8 |
| 20260830153103 | 64 | 240 | 1.0 | 0.0 | 0.00 | 0.00 | 0.17 | 81 | 1000.8 |
| 20260830152527 | 64 | 228 | 1.0 | 0.0 | 0.00 | 0.00 | 0.17 | 81 | 1000.7 |
| 20260830152022 | 64 | 187 | 2.0 | 0.0 | 0.00 | 0.00 | 0.17 | 81 | 1000.7 |